Location: Unspecified
(0.0000°N, 0.0000°E)
Time: 02:03:30
(UTC+00:00)

Vanguard 2 Rocket - All Passes

Search period start: 26 May 2019 00:00
Search period end: 05 June 2019 00:00
Orbit: 555 x 3326 km, 32.9° (Epoch: 25 May)

Date Brightness Start Highest point End Pass type
(mag) Time Alt. Az. Time Alt. Az. Time Alt. Az.
26 May - 01:57:05 10° WSW 02:15:21 78° NW 02:35:12 10° NE visible
26 May - 04:17:37 10° W 04:35:03 35° NNW 04:49:58 10° NNE visible
26 May - 06:48:55 10° NW 06:55:53 13° NNW 07:01:48 10° N daylight
26 May - 11:30:13 10° NNW 11:34:00 15° NNE 11:37:00 10° ENE daylight
26 May - 13:43:08 10° WNW 13:47:50 72° SW 13:51:44 10° SE daylight
26 May - 22:43:26 10° SSW 22:55:03 34° SE 23:11:25 10° E visible
27 May - 00:56:22 10° SW 01:12:57 84° SE 01:33:34 10° NE visible
27 May - 03:14:07 10° W 03:32:24 47° NNW 03:49:51 10° NE visible
27 May - 05:41:02 10° WNW 05:53:11 19° NNW 06:03:11 10° NNE daylight
27 May - 10:30:36 10° N 10:33:36 12° NNE 10:36:08 10° NE daylight
27 May - 12:43:07 10° NW 12:48:40 52° NNE 12:52:39 10° ESE daylight
27 May - 14:59:43 10° WSW 15:01:25 12° SSW 15:03:06 10° S daylight
27 May - 21:45:01 10° SSW 21:53:43 23° SE 22:05:41 10° E night (unlit)
27 May - 23:56:23 10° SW 00:10:54 65° SE 00:31:04 10° ENE visible
28 May - 02:11:56 10° WSW 02:29:44 60° NW 02:49:08 10° NE visible
28 May - 04:34:51 10° WNW 04:50:18 26° NNW 05:03:40 10° NNE visible
28 May - 07:07:52 10° NNW 07:12:20 11° N 07:16:17 10° N daylight
28 May - 09:30:22 10° N 09:32:41 11° N 09:34:45 10° NNE daylight
28 May - 11:43:01 10° NNW 11:49:05 30° NNE 11:53:14 10° E daylight
28 May - 13:58:11 10° W 14:02:09 27° SW 14:05:33 10° SSE daylight
28 May - 20:48:01 10° S 20:52:33 13° SSE 20:58:02 10° ESE night (unlit)
28 May - 22:57:02 10° SSW 23:09:19 48° SE 23:27:34 10° ENE visible
29 May - 01:10:48 10° WSW 01:27:13 76° NW 01:47:46 10° NE visible
29 May - 03:30:22 10° W 03:47:21 35° NNW 04:03:32 10° NNE visible
29 May - 05:59:55 10° NW 06:09:25 15° NNW 06:17:25 10° NNE daylight
29 May - 08:28:22 10° N 08:31:09 11° N 08:33:39 10° NNE daylight
29 May - 10:42:42 10° NNW 10:49:01 22° NNE 10:53:26 10° ENE daylight
29 May - 12:57:24 10° WNW 13:03:06 64° SW 13:07:09 10° SE daylight
29 May - 21:58:17 10° SSW 22:08:12 33° SE 22:23:00 10° E night (unlit)
30 May - 00:10:29 10° SW 00:25:03 86° SE 00:45:41 10° NE visible
30 May - 02:27:25 10° W 02:44:27 45° NNW 03:02:53 10° NE visible
30 May - 04:53:00 10° WNW 05:06:12 21° NNW 05:17:39 10° NNE visible
30 May - 07:24:01 10° NNW 07:28:56 12° N 07:33:12 10° NNE daylight
30 May - 09:41:56 10° NNW 09:48:25 18° NNE 09:53:09 10° ENE daylight
30 May - 11:56:43 10° NW 12:03:51 65° NNE 12:08:20 10° ESE daylight
30 May - 14:15:01 10° WSW 14:16:28 11° SW 14:17:51 10° SSW daylight
30 May - 21:00:20 10° S 21:07:24 20° SE 21:17:11 10° E night (unlit)
30 May - 23:10:52 10° SW 23:23:24 66° SE 23:42:50 10° ENE visible
31 May - 01:25:42 10° WSW 01:41:44 58° NNW 02:01:39 10° NE visible
31 May - 03:47:32 10° WNW 04:02:52 27° NNW 04:17:21 10° NNE visible
31 May - 06:18:01 10° NW 06:26:04 14° N 06:32:52 10° NNE daylight
31 May - 08:40:28 10° NNW 08:47:15 16° N 08:52:25 10° NE daylight
31 May - 10:55:55 10° NW 11:04:07 40° NNE 11:09:09 10° E daylight
31 May - 13:12:34 10° W 13:17:17 27° SW 13:20:54 10° SSE daylight
31 May - 20:05:32 10° SSE 20:06:44 10° SE 20:08:01 10° SE visible
31 May - 22:11:51 10° SSW 22:22:21 47° SE 22:39:08 10° ENE visible
01 Jun - 00:24:58 10° WSW 00:39:22 73° NW 00:59:51 10° NE visible
01 Jun - 02:43:40 10° W 02:59:37 34° NNW 03:16:36 10° NNE visible
01 Jun - 05:11:29 10° NW 05:22:40 17° NNW 05:32:22 10° NNE visible
01 Jun - 07:37:58 10° NNW 07:45:23 15° N 07:51:16 10° NE daylight
01 Jun - 09:54:51 10° NNW 10:03:50 29° NNE 10:09:32 10° E daylight
01 Jun - 12:11:07 10° WNW 12:18:13 59° SW 12:22:42 10° SE daylight
01 Jun - 21:13:26 10° SSW 21:21:45 30° SE 21:34:32 10° E night (unlit)
01 Jun - 23:25:01 10° SW 23:37:34 88° SE 23:57:24 10° NE visible
02 Jun - 01:41:14 10° W 01:56:38 43° NNW 02:15:22 10° NE visible
02 Jun - 04:05:29 10° WNW 04:19:00 21° NNW 04:31:36 10° NNE visible
02 Jun - 06:34:08 10° NNW 06:42:47 15° N 06:49:52 10° NNE daylight
02 Jun - 08:53:23 10° NNW 09:02:59 24° NNE 09:09:26 10° ENE daylight
02 Jun - 11:09:47 10° NW 11:18:49 76° NNE 11:24:03 10° ESE daylight
02 Jun - 13:29:24 10° WSW 13:31:27 12° SW 13:33:18 10° SSW daylight
02 Jun - 20:15:57 10° S 20:21:27 17° SE 20:28:50 10° ESE visible
02 Jun - 22:25:41 10° SW 22:36:22 66° SE 22:54:21 10° ENE visible
03 Jun - 00:39:56 10° WSW 00:54:02 54° NNW 01:13:40 10° NE visible
03 Jun - 03:00:47 10° WNW 03:15:23 26° NNW 03:30:31 10° NNE visible
03 Jun - 05:29:06 10° NW 05:39:29 16° N 05:48:20 10° NNE visible
03 Jun - 07:51:21 10° NNW 08:01:30 21° NNE 08:08:45 10° ENE daylight
03 Jun - 10:08:19 10° NW 10:18:54 50° NNE 10:24:58 10° ESE daylight
03 Jun - 12:26:22 10° W 12:32:18 28° SW 12:36:25 10° SSE daylight
03 Jun - 21:26:56 10° SSW 21:35:47 45° SE 21:50:39 10° ENE night (unlit)
03 Jun - 23:39:33 10° WSW 23:51:58 69° NNW 00:11:30 10° NE visible
04 Jun - 01:57:30 10° W 02:12:01 32° NNW 02:29:05 10° NNE visible
04 Jun - 04:23:36 10° NW 04:35:41 18° N 04:46:43 10° NNE visible
04 Jun - 06:48:36 10° NNW 06:59:17 19° N 07:07:25 10° NE daylight
04 Jun - 09:06:38 10° NW 09:18:23 37° NNE 09:25:25 10° E daylight
04 Jun - 11:24:16 10° WNW 11:33:07 58° SW 11:38:19 10° SE daylight
04 Jun - 20:28:48 10° SSW 20:35:41 28° SE 20:46:16 10° E visible
04 Jun - 22:39:53 10° SW 22:50:33 89° NW 23:08:52 10° NE visible
